Home   Weather   Nikaia   Past weeks

Flag for Greece Past Weather in Nikaia, Greece — Yesterday and Last 2 Weeks

Now
72 °F

Clear.


Feels Like: 77 °F
Forecast: 76 / 87 °F
Wind: 3 mph from North

Location: Elefsis Airport

Current Time: Aug 31, 2016 at 5:35:00 AM

Latest Report: Aug 31, 2016 at 4:50 AM


Visibility: 10 mi

Pressure: 29.98 "Hg

Humidity: 53%

Dew Point: 54 °F

Location of NikaiaLocation

Past Weather in Nikaia — Graph

°F

Nikaia Temperature Yesterday

Maximum temperature yesterday: 93 °F (at 3:50 PM)
Minimum temperature yesterday: 68 °F (at 4:50 AM)
Average temperature yesterday: 80 °F

High & Low Weather Summary for the Past Weeks

 TemperatureHumidityPressure
High97 °F (Aug 17, 3:50 PM)78% (Aug 31, 1:50 AM)30.07 "Hg (Aug 31, 1:50 AM)
Low68 °F (Aug 18, 6:20 AM)14% (Aug 16, 4:50 PM)29.74 "Hg (Aug 18, 3:50 PM)
Average83 °F38%29.89 "Hg
* Reported Aug 16 3:20 AM — Aug 31 3:50 AM, Nikaia, Weather by CustomWeather, © 2016

Note: Actual official high and low records may vary slightly from our data, if they occured in-between our weather recording intervals... More about our weather records

Advertising

Nikaia Weather History for the Previous 24 Hours

Scroll right to see more
 ConditionsComfort  
Time TempWeatherWind HumidityBarometerVisibility
3:50 AM
Wed, Aug 31
73 °FClear.3 mph53%29.98 "Hg10 mi
3:20 AM73 °FClear.3 mph53%29.98 "Hg10 mi
2:50 AM73 °FClear.3 mph53%29.98 "Hg10 mi
2:20 AM72 °FClear.2 mph78%30.01 "Hg10 mi
1:50 AM72 °FClear.2 mph78%30.01 "Hg10 mi
12:50 AM73 °FClear.3 mph69%30.01 "Hg10 mi
12:20 AM73 °FClear.2 mph74%30.01 "Hg10 mi
11:50 PM
Tue, Aug 30
73 °FClear.No wind69%29.98 "Hg10 mi
11:20 PM75 °FClear.3 mph65%29.98 "Hg10 mi
10:50 PM75 °FClear.No wind65%29.98 "Hg10 mi
10:20 PM77 °FClear.No wind61%29.98 "Hg10 mi
9:50 PM77 °FClear.3 mph57%29.98 "Hg10 mi
9:20 PM79 °FClear.No wind58%29.98 "Hg10 mi
8:50 PM81 °FSunny.3 mph62%29.95 "Hg10 mi
8:20 PM81 °FSunny.3 mph62%29.95 "Hg10 mi
7:20 PM82 °FSunny.7 mph51%29.92 "Hg10 mi
6:50 PM86 °FPassing clouds.8 mph40%29.92 "HgN/A
6:20 PM88 °FPassing clouds.8 mph38%29.92 "HgN/A
5:50 PM90 °FPassing clouds.9 mph33%29.92 "HgN/A
5:20 PM90 °FPassing clouds.10 mph33%29.92 "HgN/A
4:50 PM91 °FPassing clouds.10 mph32%29.92 "HgN/A
4:20 PM91 °FPassing clouds.10 mph28%29.92 "HgN/A
3:50 PM93 °FPassing clouds.12 mph24%29.92 "HgN/A
3:20 PM91 °FPassing clouds.9 mph26%29.92 "HgN/A
2:50 PM91 °FPassing clouds.9 mph26%29.92 "HgN/A
2:20 PM91 °FPassing clouds.7 mph28%29.92 "HgN/A
1:50 PM91 °FSunny.6 mph30%29.92 "Hg10 mi
12:50 PM90 °FSunny.7 mph33%29.95 "Hg10 mi
12:20 PM90 °FSunny.6 mph29%29.95 "Hg10 mi
11:50 AM90 °FSunny.6 mph29%29.95 "Hg10 mi
11:20 AM88 °FSunny.6 mph33%29.95 "Hg10 mi
10:50 AM86 °FSunny.3 mph33%29.95 "Hg10 mi
10:20 AM84 °FSunny.3 mph37%29.95 "Hg10 mi
9:20 AM82 °FSunny.No wind40%29.95 "Hg10 mi
8:50 AM77 °FSunny.No wind51%29.92 "Hg10 mi
8:20 AM77 °FSunny.No wind47%29.92 "Hg10 mi
7:50 AM72 °FClear.No wind61%29.92 "Hg10 mi
7:20 AM70 °FClear.No wind64%29.92 "Hg10 mi
6:50 AM70 °FClear.No wind64%29.92 "Hg10 mi
6:20 AM70 °FClear.No wind64%29.92 "Hg10 mi
5:50 AM70 °FPassing clouds.3 mph64%29.92 "HgN/A
5:20 AM68 °FPassing clouds.3 mph69%29.92 "HgN/A
Weather by CustomWeather, © 2016

See weather overviewHow to use our weather pages